(°C)
(°C)
SO
SO
SO
OSO
OSO
OSO
OSO
(km/h)
10-18
10-17
10-16
11-17
12-17
12-18
11-16
(mm)
0
0
0
0
0
0
0
(%)
7
13
14
25
14
17
6

Elevación del sol

/ -1.4°
sun-icon
UV 0
07:19
16:01
Menguante (334°)
04:37
14:48

METAR a Ivanka pri Dunaji (LZIB)

Hora Condiciones Temperatura/
Punto de condensación
Viento Visibilidad Tiempo Nubes Presión Cambiar Bruto
VFR 5°C / 3°C 190º 3kt >10km - Few Clouds 4800ft 999 No Significant change LZIB 020600Z 19003KT 9999 FEW048 05/03 Q0999 NOSIG
VFR 5°C / 3°C 210º 3kt >10km - Few Clouds 4800ft 1000 No Significant change LZIB 020530Z 21003KT 9999 FEW048 05/03 Q1000 NOSIG
VFR 5°C / 3°C 180º 7kt >10km - Few Clouds 4900ft 1000 No Significant change LZIB 020500Z 18007KT 9999 FEW049 05/03 Q1000 NOSIG
VFR 5°C / 3°C 210º 4kt >10km - Scattered Clouds 4900ft 999 - LZIB 020430Z 21004KT 9999 SCT049 05/03 Q0999
VFR 5°C / 4°C 210º 6kt >10km - Broken Clouds 4900ft 999 - LZIB 020400Z 21006KT 9999 BKN049 05/04 Q0999
VFR 5°C / 4°C 220º 8kt >10km - Broken Clouds 4800ft 999 - LZIB 020330Z 22008KT 9999 BKN048 05/04 Q0999
VFR 5°C / 4°C 210º 8kt >10km - Scattered Clouds 4800ft 999 - LZIB 020300Z 21008KT 9999 SCT048 05/04 Q0999
VFR 5°C / 4°C 210º 5kt >10km - Broken Clouds 4800ft 999 - LZIB 020230Z 21005KT 9999 BKN048 05/04 Q0999
VFR 3°C / 3°C variable 2kt >10km - Scattered Clouds 4900ft 999 - LZIB 020200Z VRB02KT 9999 SCT049 03/03 Q0999
VFR 4°C / 3°C variable 2kt >10km - Few Clouds 4600ft 999 - LZIB 020130Z VRB02KT 9999 FEW046 04/03 Q0999
VFR 4°C / 3°C variable 1kt >10km - Scattered Clouds 4400ft 999 - LZIB 020100Z VRB01KT 9999 SCT044 04/03 Q0999
VFR 4°C / 3°C variable 1kt >10km - Scattered Clouds 4400ft 999 - LZIB 020030Z VRB01KT 9999 SCT044 04/03 Q0999
VFR 4°C / 3°C 80º 2kt >10km - Scattered Clouds 4100ft 999 - LZIB 020000Z 08002KT 9999 SCT041 04/03 Q0999
VFR 4°C / 4°C 340º 2kt >10km - Broken Clouds 4400ft 999 - LZIB 012330Z 34002KT 9999 BKN044 04/04 Q0999
VFR 4°C / 3°C variable 2kt >10km Light Rain 1.00mm precipitation Vertical Visibility of 0ft. 1000 - LZIB 012230Z VRB02KT 9999 -RA NSC 04/03 Q1000
VFR 4°C / 3°C variable 1kt >10km Light Rain 1.00mm precipitation Vertical Visibility of 0ft. 1000 - LZIB 012200Z VRB01KT 9999 -RA NSC 04/03 Q1000
VFR 4°C / 3°C variable 2kt >10km Light Rain 1.00mm precipitation Vertical Visibility of 0ft. 1000 - LZIB 012130Z VRB02KT 9999 -RA NSC 04/03 Q1000
VFR 4°C / 3°C variable 2kt >10km Light Rain 1.00mm precipitation Vertical Visibility of 0ft. 1000 - LZIB 012100Z VRB02KT 9999 -RA NSC 04/03 Q1000
VFR 4°C / 3°C 360º 3kt >10km - Clouds and Visibility OK 1000 - LZIB 012030Z 36003KT CAVOK 04/03 Q1000
VFR 4°C / 3°C 360º 4kt >10km - Clouds and Visibility OK 1000 - LZIB 012000Z 36004KT CAVOK 04/03 Q1000
VFR 3°C / 3°C variable 2kt >10km - Clouds and Visibility OK 1000 - LZIB 011930Z VRB02KT CAVOK 03/03 Q1000
VFR 4°C / 3°C 20º 3kt >10km - Clouds and Visibility OK 1000 No Significant change LZIB 011900Z 02003KT CAVOK 04/03 Q1000 NOSIG
VFR 3°C / 2°C 10º 3kt >10km - Clouds and Visibility OK 1000 No Significant change LZIB 011830Z 01003KT CAVOK 03/02 Q1000 NOSIG
VFR 4°C / 3°C variable 2kt >10km - Clouds and Visibility OK 1000 No Significant change LZIB 011800Z VRB02KT CAVOK 04/03 Q1000 NOSIG

VFR

5°C / 3°C

[Más]
Viento 190º 3kt
Visibilidad >10km
Tiempo -
Nubes Few Clouds 4800ft
Presión 999
Cambiar No Significant change
Bruto LZIB 020600Z 19003KT 9999 FEW048 05/03 Q0999 NOSIG

VFR

5°C / 3°C

[Más]
Viento 210º 3kt
Visibilidad >10km
Tiempo -
Nubes Few Clouds 4800ft
Presión 1000
Cambiar No Significant change
Bruto LZIB 020530Z 21003KT 9999 FEW048 05/03 Q1000 NOSIG

VFR

5°C / 3°C

[Más]
Viento 180º 7kt
Visibilidad >10km
Tiempo -
Nubes Few Clouds 4900ft
Presión 1000
Cambiar No Significant change
Bruto LZIB 020500Z 18007KT 9999 FEW049 05/03 Q1000 NOSIG

VFR

5°C / 3°C

[Más]
Viento 210º 4kt
Visibilidad >10km
Tiempo -
Nubes Scattered Clouds 4900ft
Presión 999
Cambiar -
Bruto LZIB 020430Z 21004KT 9999 SCT049 05/03 Q0999

VFR

5°C / 4°C

[Más]
Viento 210º 6kt
Visibilidad >10km
Tiempo -
Nubes Broken Clouds 4900ft
Presión 999
Cambiar -
Bruto LZIB 020400Z 21006KT 9999 BKN049 05/04 Q0999

VFR

5°C / 4°C

[Más]
Viento 220º 8kt
Visibilidad >10km
Tiempo -
Nubes Broken Clouds 4800ft
Presión 999
Cambiar -
Bruto LZIB 020330Z 22008KT 9999 BKN048 05/04 Q0999

VFR

5°C / 4°C

[Más]
Viento 210º 8kt
Visibilidad >10km
Tiempo -
Nubes Scattered Clouds 4800ft
Presión 999
Cambiar -
Bruto LZIB 020300Z 21008KT 9999 SCT048 05/04 Q0999

VFR

5°C / 4°C

[Más]
Viento 210º 5kt
Visibilidad >10km
Tiempo -
Nubes Broken Clouds 4800ft
Presión 999
Cambiar -
Bruto LZIB 020230Z 21005KT 9999 BKN048 05/04 Q0999

VFR

3°C / 3°C

[Más]
Viento variable 2kt
Visibilidad >10km
Tiempo -
Nubes Scattered Clouds 4900ft
Presión 999
Cambiar -
Bruto LZIB 020200Z VRB02KT 9999 SCT049 03/03 Q0999

VFR

4°C / 3°C

[Más]
Viento variable 2kt
Visibilidad >10km
Tiempo -
Nubes Few Clouds 4600ft
Presión 999
Cambiar -
Bruto LZIB 020130Z VRB02KT 9999 FEW046 04/03 Q0999

VFR

4°C / 3°C

[Más]
Viento variable 1kt
Visibilidad >10km
Tiempo -
Nubes Scattered Clouds 4400ft
Presión 999
Cambiar -
Bruto LZIB 020100Z VRB01KT 9999 SCT044 04/03 Q0999

VFR

4°C / 3°C

[Más]
Viento variable 1kt
Visibilidad >10km
Tiempo -
Nubes Scattered Clouds 4400ft
Presión 999
Cambiar -
Bruto LZIB 020030Z VRB01KT 9999 SCT044 04/03 Q0999

VFR

4°C / 3°C

[Más]
Viento 80º 2kt
Visibilidad >10km
Tiempo -
Nubes Scattered Clouds 4100ft
Presión 999
Cambiar -
Bruto LZIB 020000Z 08002KT 9999 SCT041 04/03 Q0999

VFR

4°C / 4°C

[Más]
Viento 340º 2kt
Visibilidad >10km
Tiempo -
Nubes Broken Clouds 4400ft
Presión 999
Cambiar -
Bruto LZIB 012330Z 34002KT 9999 BKN044 04/04 Q0999

VFR

4°C / 3°C

[Más]
Viento variable 2kt
Visibilidad >10km
Tiempo Light Rain 1.00mm precipitation
Nubes Vertical Visibility of 0ft.
Presión 1000
Cambiar -
Bruto LZIB 012230Z VRB02KT 9999 -RA NSC 04/03 Q1000

VFR

4°C / 3°C

[Más]
Viento variable 1kt
Visibilidad >10km
Tiempo Light Rain 1.00mm precipitation
Nubes Vertical Visibility of 0ft.
Presión 1000
Cambiar -
Bruto LZIB 012200Z VRB01KT 9999 -RA NSC 04/03 Q1000

VFR

4°C / 3°C

[Más]
Viento variable 2kt
Visibilidad >10km
Tiempo Light Rain 1.00mm precipitation
Nubes Vertical Visibility of 0ft.
Presión 1000
Cambiar -
Bruto LZIB 012130Z VRB02KT 9999 -RA NSC 04/03 Q1000

VFR

4°C / 3°C

[Más]
Viento variable 2kt
Visibilidad >10km
Tiempo Light Rain 1.00mm precipitation
Nubes Vertical Visibility of 0ft.
Presión 1000
Cambiar -
Bruto LZIB 012100Z VRB02KT 9999 -RA NSC 04/03 Q1000

VFR

4°C / 3°C

[Más]
Viento 360º 3kt
Visibilidad >10km
Tiempo -
Nubes Clouds and Visibility OK
Presión 1000
Cambiar -
Bruto LZIB 012030Z 36003KT CAVOK 04/03 Q1000

VFR

4°C / 3°C

[Más]
Viento 360º 4kt
Visibilidad >10km
Tiempo -
Nubes Clouds and Visibility OK
Presión 1000
Cambiar -
Bruto LZIB 012000Z 36004KT CAVOK 04/03 Q1000

VFR

3°C / 3°C

[Más]
Viento variable 2kt
Visibilidad >10km
Tiempo -
Nubes Clouds and Visibility OK
Presión 1000
Cambiar -
Bruto LZIB 011930Z VRB02KT CAVOK 03/03 Q1000

VFR

4°C / 3°C

[Más]
Viento 20º 3kt
Visibilidad >10km
Tiempo -
Nubes Clouds and Visibility OK
Presión 1000
Cambiar No Significant change
Bruto LZIB 011900Z 02003KT CAVOK 04/03 Q1000 NOSIG

VFR

3°C / 2°C

[Más]
Viento 10º 3kt
Visibilidad >10km
Tiempo -
Nubes Clouds and Visibility OK
Presión 1000
Cambiar No Significant change
Bruto LZIB 011830Z 01003KT CAVOK 03/02 Q1000 NOSIG

VFR

4°C / 3°C

[Más]
Viento variable 2kt
Visibilidad >10km
Tiempo -
Nubes Clouds and Visibility OK
Presión 1000
Cambiar No Significant change
Bruto LZIB 011800Z VRB02KT CAVOK 04/03 Q1000 NOSIG

TAF a Ivanka pri Dunaji (LZIB)

From till


From till Wind 220º 8kt. Visibility 10km or more. Nil Significant Cloud.
Becoming from till Wind variable 2kt. Visibility 8000m. Few Clouds 500ft. Broken Clouds 2800ft.
Temporarly from till Visibility 2500m. Mist . Broken Clouds 400ft.
With 40% probability, Temporarly from till Visibility 1300m. Mist . Broken Clouds 200ft.
Becoming from till Wind 300º 15kt. Visibility 10km or more. Nil Significant Cloud.
Temporarly from till Wind 300º 16kt. Gust 26kt.

Bruto: TAF COR LZIB 020518Z 0206/0306 22008KT CAVOK BECMG 0210/0212 VRB02KT 8000 FEW005 BKN028 TEMPO 0215/0222 2500 BR BKN004 PROB40 TEMPO 0217/0222 1300 BR BKN002 BECMG 0222/0300 30015KT CAVOK TEMPO 0300/0305 30016G26KT

Imágenes actuales de satélite y lluvia para Ivanka pri Dunaji, República Eslovaca

El marcador de lugar se coloca en Ivanka pri Dunaji. [Más]

La imagen de satélite en tiempo real se aprovecha de la combinación de bandas de la luz visible y de la luz infrarrojo. Como se puede detectar cambios de temperaturas atreves de la banda infrarrojo, la imagen no está escura de noche. No obstante, la niebla y las nubes bajas son apenas visibles en las imágenes infrarrojo como las diferencias de temperaturas entre el suelo y la niebla son muy pequeñas. Por eso son casi invisibles durante la noche. Las imágenes de satélite del Meteosat (Europa) son actualizados en tiempo real cada 5 minutos. Las imágenes del GOES-16/GOES-17 (América del Norte y América del Sur) y Himawari (Asia) son actualizados cada 10 minutos.

La precipitación se estima a partir de radares y satélites. Estimaciones de precipitación de la noche de los satélites son menos precisas que durante el día. Cruces naranjas identifican lugares donde relámpagos fueron detectados (en Europa).

Copyright 2021 EUMETSAT / meteoblue. Datos de relámpagos proporcionados por nowcast.

Radar y precipitación nowcast para Ivanka pri Dunaji

llovizna
Leve
Moderado
Fuerte
Muy fuerte
Granizo

El marcador de lugar se coloca en Ivanka pri Dunaji. Esta animación muestra lo radar de precipitaciones hasta la última hora, así como la 1h previsión. Las lloviznas o las nevadas ligeras pueden ser invisibles para el radar. La intensidad de la precipitación está codificada por colores, que van del azul claro al naranja.